SCP
0 0 0 0 0 0 0 0 0 0 0 0 0 0 0 0 0 0 0 0 0 0 0 0 0 0 0 0 0 0 0 0 0 0 0 0 0 0 0 0 0 0 0
0 0 0 0 0 0 0 0 0 0 0 0 0 0 0 0 0 0 0 0 0 0 0 0 0 0 0 0 0 0 0 0 0 0 0 0 0 0 0 0 0 0 0
0 0 0 0 0 0 0 0 0 0 0 0 0 0 0 0 0 0 0 0 0 0 0 0 0 0 0 0 0 0 0 0 0 0 0 0 0 0 0 0 0 0 0
0 0 0 0 0 0 0 0 0 0 0 0 0 0 0 0 0 0 0 0 0 0 0 0 0 0 0 0 0 0 0 0 0 0 0 0 0 0 0 0 0 0 0
0 0 0 0 0 0 0 0 0 0 0 0 0 0 0 0 0 0 0 0 0 0 0 0 0 0 0 0 0 0 0 0 0 0 0 0 0 0 0 0 0 0 0
0 0 0 0 0 0 0 0 0 0 0 0 0 0 0 0 0 0 0 0 0 0 0 0 0 0 0 0 0 0 0 0 0 0 0 0 0 0 0 0 0 0 -0
0 0 0 0 0 0 0 0 0 0 0 0 0 0 0 0 0 0 0 0 0 0 0 0 0 0 0 0 0 0 0 0 0 0 0 0 0 0 0 0 0 0 0
0 0 0 0 0 0 0 0 0 0 0 0 0 0 0 0 0 0 0 0 0 0 0 0 0 0 0 0 0 0 0 0 0 0 0 0 0 0 0 0 0 0 0
0 0 0 0 0 0 0 0 0 0 0 0 0 0 0 0 0 0 0 0 0 0 0 0 0 0 0 0 0 0 0 0 0 0 0 0 0 0 0 0 0 0 -0
0 0 0 0 0 0 0 0 0 0 0 0 0 0 0 0 0 0 0 0 0 0 0 0 0 0 0 0 0 0 0 0 0 0 0 0 0 0 0 0 0 0 0
0 0 0 0 0 0 0 0 0 0 0 0 0 0 0 0 0 0 0 0 0 0 0 0 0 0 0 0 0 0 0 0 0 0 0 0 0 0 0 0 0 0 0
0 0 0 0 0 0 0 0 0 0 0 0 0 0 0 0 0 0 0 0 0 0 0 0 0 0 0 0 0 0 0 0 0 0 0 0 0 0 0 0 0 0 0
0 0 0 0 0 0 0 0 0 0 0 0 0 0 0 0 0 0 0 0 0 0 0 0 0 0 0 0 0 0 0 0 0 0 0 0 0 0 0 0 0 0 0
0 0 0 0 0 0 0 0 0 0 0 0 0 0 0 0 0 0 0 0 0 0 0 0 0 0 0 0 0 0 0 0 0 0 0 0 0 0 0 0 0 0 0
0 0 0 0 0 0 0 0 0 0 0 0 0 0 0 0 0 0 0 0 0 0 0 0 0 0 0 0 0 0 0 0 0 0 0 0 0 0 0 0 0 0 0
0 0 0 0 0 0 0 0 0 0 0 0 0 0 0 0 0 0 0 0 0 0 0 0 0 0 0 0 0 0 0 0 0 0 0 0 0 0 0 0 0 0 0
0 0 0 0 0 0 0 0 0 0 0 0 0 0 0 0 0 0 0 0 0 0 0 0 0 0 0 0 0 0 0 0 0 0 0 0 0 0 0 0 0 0 0
0 0 0 0 0 0 0 0 0 0 0 0 0 0 0 0 0 0 0 0 0 0 0 0 0 0 0 0 0 0 0 0 0 0 0 0 0 0 0 0 0 0 0
0 0 0 0 0 0 0 0 0 0 0 0 0 0 0 0 0 0 0 0 0 0 0 0 0 0 0 0 0 0 0 0 0 0 0 0 0 0 0 0 0 0 0
0 0 0 0 0 0 0 0 0 0 0 0 0 0 0 0 0 0 0 0 0 0 0 0 0 0 0 0 0 0 0 0 0 0 0 0 0 0 0 0 0 0 0
0 0 0 0 0 0 0 0 0 0 0 0 0 0 0 0 0 0 0 0 0 0 0 0 0 0 0 0 0 0 0 0 0 0 0 0 0 0 0 0 0 0 0
0 0 0 0 0 0 0 0 0 0 0 0 0 0 0 0 0 0 0 0 0 0 0 0 0 0 0 0 0 0 0 0 0 0 0 0 0 0 0 0 0 0 0
0 0 0 0 0 0 0 0 0 0 0 0 0 0 0 0 0 0 0 0 0 0 0 0 0 0 0 0 0 0 0 0 0 0 0 0 0 0 0 0 0 0 0
0 0 0 0 0 0 0 0 0 0 0 0 0 0 0 0 0 0 0 0 0 0 0 0 0 0 0 0 0 0 0 0 0 0 0 0 0 0 0 0 0 0 0
0 0 0 0 0 0 0 0 0 0 0 0 0 0 0 0 0 0 0 0 0 0 0 0 0 0 0 0 0 0 0 0 0 0 0 0 0 0 0 0 0 0 0
0 0 0 0 0 0 0 0 0 0 0 0 0 0 0 0 0 0 0 0 0 0 0 0 0 0 0 0 0 0 0 0 0 0 0 0 0 0 0 0 0 0 0
Wind_Speed_500mb
20 23 26 28 29 30 30 31 31 30 29 31 31 31 33 34 35 35 37 38 40 41 42 45 47 50 52 54 57 56 45 44 58 96 82 79 90 91 80 78 79 76 71
21 23 24 25 27 28 28 28 29 29 26 26 28 31 33 35 35 36 37 40 43 46 49 51 53 55 58 61 62 56 49 49 55 77 86 87 87 83 77 86 83 74 68
20 21 23 26 27 28 29 29 25 22 21 22 26 30 33 36 38 40 44 47 49 51 54 55 56 59 62 62 61 59 57 57 69 61 82 84 84 75 83 84 82 79 68
20 22 24 26 28 29 28 24 21 19 20 23 27 31 35 40 45 50 53 55 53 53 53 53 55 57 58 61 60 59 55 63 71 65 70 81 79 73 76 81 93 84 78
22 25 27 30 31 29 25 21 18 18 21 25 29 34 39 44 47 51 54 55 57 59 59 57 57 54 53 56 59 57 54 59 66 66 65 72 70 75 73 84 85 84 78
25 27 30 33 34 30 24 21 20 21 24 27 31 37 41 46 49 53 55 58 58 59 60 58 57 56 57 60 58 48 48 54 58 64 57 70 68 64 73 76 77 77 80
28 32 35 36 35 31 27 24 23 24 26 29 34 39 45 51 55 59 59 58 60 59 57 57 59 55 62 65 59 52 55 45 47 51 60 67 70 59 66 65 64 63 64
32 35 37 36 35 32 31 30 29 29 30 34 41 47 52 56 60 61 60 57 59 58 55 53 53 54 65 57 60 64 53 53 58 44 56 68 59 54 54 51 60 60 56
35 38 39 38 35 33 33 32 33 34 36 40 46 52 57 59 62 62 58 57 58 56 52 52 46 58 54 49 60 60 62 67 53 55 63 60 52 49 47 53 53 58 64
38 39 39 38 35 34 35 37 39 39 43 46 50 56 60 62 61 60 56 55 58 56 51 46 52 45 46 43 55 62 67 54 65 73 54 51 52 51 48 47 48 49 53
41 41 41 40 38 39 41 41 42 44 47 49 53 56 59 61 61 55 53 48 50 50 53 53 53 42 38 46 49 55 51 55 64 64 62 58 54 52 53 51 48 47 50
43 43 42 42 41 42 43 43 45 47 50 53 56 57 59 59 55 54 51 40 40 46 51 55 47 44 47 56 63 53 46 60 62 63 63 61 60 57 55 54 52 48 46
44 42 43 42 41 42 44 45 48 50 52 54 56 60 62 59 53 50 45 42 39 45 52 48 53 56 62 67 61 57 58 58 58 58 60 60 59 60 59 57 53 52 49
46 44 43 42 42 43 45 47 49 50 52 52 57 61 63 59 53 50 48 48 49 51 60 59 60 65 65 64 59 54 53 54 55 57 58 58 58 57 56 54 56 55 56
49 47 46 45 45 44 45 46 48 49 51 53 57 60 62 60 54 46 42 46 45 50 56 61 63 61 59 58 54 52 51 51 52 52 54 56 56 57 55 53 52 53 53
55 52 49 48 47 45 46 47 49 49 49 52 55 57 56 55 53 44 41 39 49 55 58 64 62 59 58 59 59 56 50 50 50 52 52 54 56 57 57 54 53 53 55
58 54 52 52 49 48 49 51 54 47 48 50 53 55 54 56 56 53 42 37 52 54 53 56 57 57 57 57 58 57 57 52 52 52 54 53 55 56 58 56 55 55 56
56 56 56 53 51 51 51 52 53 52 53 50 47 52 54 54 54 53 54 59 55 47 51 55 57 58 58 58 57 58 58 57 55 54 54 53 52 56 58 57 55 57 58
57 57 55 54 54 52 51 52 52 51 54 56 53 46 50 50 51 50 52 55 57 57 55 55 54 56 58 60 58 58 59 58 56 56 55 55 53 53 54 55 55 54 56
60 55 53 54 53 51 50 52 50 50 53 54 51 53 49 53 52 47 47 51 54 58 61 63 62 61 62 63 64 63 64 62 60 59 58 58 56 55 55 57 56 58 57
57 53 52 52 51 49 50 48 46 49 52 51 48 48 52 56 56 56 56 55 58 61 63 65 65 63 64 65 65 65 65 65 62 62 62 62 61 60 56 56 56 55 56
52 50 50 49 47 47 46 45 45 49 50 50 46 45 49 52 55 57 58 59 60 61 63 67 68 64 62 64 65 64 65 65 61 61 62 62 62 61 59 57 56 55 54
49 48 46 45 44 44 43 42 45 49 48 47 48 48 47 50 53 56 59 61 62 63 61 62 64 62 58 56 55 57 59 58 58 58 60 60 59 58 56 56 54 54 53
46 42 41 41 40 39 38 40 46 47 47 46 47 49 52 54 55 57 60 63 64 60 56 56 57 58 58 56 53 50 49 48 49 51 54 57 57 54 54 53 52 51 50
38 38 37 35 35 35 37 41 43 43 44 45 46 49 51 54 58 61 62 61 58 57 56 56 55 55 54 51 47 46 46 47 50 51 51 52 52 49 49 50 46 45 47
36 33 32 33 32 34 38 40 39 39 41 43 46 49 54 57 60 60 56 55 57 57 58 57 55 52 50 48 47 48 49 49 50 47 49 51 53 51 53 52 48 53 55
Wind_Direction_500mb
348 346 342 336 332 328 326 325 324 327 328 327 331 337 342 345 347 347 347 349 349 349 345 344 342 339 340 337 336 337 333 330 316 314 321 324 321 326 330 329 331 332 330
335 332 327 327 322 320 320 321 321 322 328 335 339 343 343 344 345 344 344 346 346 345 344 342 341 336 335 336 337 338 331 331 325 318 317 321 325 329 328 328 333 337 338
323 321 321 320 319 319 318 317 322 326 334 339 341 341 343 342 340 339 340 343 343 341 341 340 337 334 331 330 330 331 332 324 325 322 315 321 326 334 326 329 335 338 344
315 315 316 317 314 315 315 315 318 324 334 339 343 343 343 342 340 339 337 335 335 333 332 332 331 330 330 330 330 331 328 326 324 329 321 321 327 329 329 331 332 337 341
309 314 314 312 313 313 311 308 310 320 330 337 340 340 340 337 335 333 330 330 330 329 330 331 331 331 333 334 331 330 327 323 322 327 324 315 325 328 332 328 329 331 335
305 310 310 312 313 309 299 294 302 316 321 326 332 333 332 333 332 331 329 327 326 327 327 328 329 329 329 332 330 327 321 318 321 325 316 316 318 319 324 325 324 334 336
305 308 310 309 304 298 290 286 291 296 306 316 321 326 329 332 332 330 327 323 322 324 324 325 327 326 328 332 332 324 322 321 319 318 309 321 321 324 316 320 323 329 330
299 304 305 306 301 290 281 275 278 287 300 316 324 326 328 329 328 325 322 318 319 322 322 322 324 321 325 337 323 325 330 318 327 313 312 322 319 318 314 316 322 322 327
301 304 304 299 291 279 271 273 282 293 304 311 317 321 324 325 324 323 321 318 318 319 319 318 317 319 324 327 323 325 318 321 322 315 315 315 316 317 317 318 324 327 330
297 301 299 296 289 284 282 282 289 296 302 309 315 320 321 321 321 321 319 318 318 319 320 317 315 317 320 323 323 319 315 327 317 314 317 315 317 319 320 322 326 326 327
301 302 300 296 293 289 284 283 288 293 299 307 312 313 315 319 319 318 318 320 320 323 317 317 317 323 316 314 321 313 322 312 307 314 317 318 317 317 318 320 324 324 321
299 297 298 297 292 287 284 283 289 296 301 306 307 310 313 315 318 319 322 320 319 313 315 318 319 314 309 315 319 319 316 308 312 313 314 316 318 319 319 320 321 319 316
295 297 295 292 290 286 284 286 292 297 301 302 306 311 314 317 320 320 320 321 318 315 318 315 307 308 308 314 318 316 314 311 311 313 314 317 318 318 318 317 316 316 313
292 292 291 291 288 286 285 288 292 297 299 303 308 311 313 316 319 319 320 326 321 319 315 311 308 307 309 311 313 313 313 313 314 314 314 314 314 316 319 322 323 323 320
290 290 289 287 284 282 282 285 292 295 297 303 309 311 312 315 317 318 317 315 320 306 299 303 310 315 316 317 316 315 314 314 315 315 316 317 318 319 321 323 324 323 322
289 287 286 282 281 280 282 287 292 295 298 304 308 307 307 310 312 313 314 319 298 298 308 313 317 319 320 320 321 321 322 320 320 319 319 318 319 319 320 323 323 322 321
290 287 282 281 281 279 281 286 293 293 297 303 305 304 306 309 312 314 315 306 302 309 312 314 315 317 319 319 318 319 319 320 318 317 316 316 316 316 317 320 322 321 320
289 285 281 280 279 278 282 288 292 294 298 302 303 303 304 307 310 312 309 309 312 310 311 314 316 317 317 317 316 316 316 317 317 316 315 314 315 314 315 316 317 318 319
288 284 280 278 277 277 281 288 290 293 299 304 306 304 303 306 308 310 310 310 314 316 316 314 313 314 314 314 314 313 313 315 315 315 315 313 314 313 313 315 316 316 316
288 284 279 278 277 277 281 284 287 293 299 304 306 306 308 307 309 310 313 314 313 313 313 312 312 312 311 310 311 311 310 311 311 311 310 309 310 311 312 312 315 317 318
286 281 279 277 277 277 279 283 287 294 298 301 304 305 309 310 314 315 316 315 313 312 312 310 311 312 311 311 310 309 309 309 310 308 306 306 307 307 309 310 312 314 316
284 282 278 277 276 276 280 281 289 294 298 302 304 305 306 309 311 313 313 313 312 312 312 312 313 314 314 313 312 312 312 312 311 308 306 305 305 306 308 308 309 313 315
284 282 279 276 275 276 278 284 291 295 300 302 304 307 307 308 310 312 312 312 312 312 313 312 312 314 315 314 314 314 312 313 311 309 309 308 308 308 308 308 309 311 314
285 281 277 276 274 277 281 287 293 298 300 302 304 308 310 311 312 313 313 312 312 314 316 315 315 316 316 317 317 314 313 315 314 314 313 312 312 313 311 310 311 312 313
283 281 277 273 273 275 282 289 293 295 298 302 305 308 309 311 314 314 313 313 315 317 319 318 318 318 318 320 321 319 317 314 311 310 311 310 311 312 315 315 316 317 318
279 274 270 269 271 278 285 289 291 295 298 301 305 309 312 314 315 314 315 316 317 319 320 320 320 319 320 323 322 319 316 313 312 312 314 316 319 322 324 322 320 319 319
Wind_Speed_850mb
20 23 26 28 29 30 30 31 31 30 29 31 31 31 33 34 35 35 37 38 40 41 42 45 47 50 52 54 57 56 45 44 58 96 82 79 90 91 80 78 79 76 71
21 23 24 25 27 28 28 28 29 29 26 26 28 31 33 35 35 36 37 40 43 46 49 51 53 55 58 61 62 56 49 49 55 77 86 87 87 83 77 86 83 74 68
20 21 23 26 27 28 29 29 25 22 21 22 26 30 33 36 38 40 44 47 49 51 54 55 56 59 62 62 61 59 57 57 69 61 82 84 84 75 83 84 82 79 68
20 22 24 26 28 29 28 24 21 19 20 23 27 31 35 40 45 50 53 55 53 53 53 53 55 57 58 61 60 59 55 63 71 65 70 81 79 73 76 81 93 84 78
22 25 27 30 31 29 25 21 18 18 21 25 29 34 39 44 47 51 54 55 57 59 59 57 57 54 53 56 59 57 54 59 66 66 65 72 70 75 73 84 85 84 78
25 27 30 33 34 30 24 21 20 21 24 27 31 37 41 46 49 53 55 58 58 59 60 58 57 56 57 60 58 48 48 54 58 64 57 70 68 64 73 76 77 77 80
28 32 35 36 35 31 27 24 23 24 26 29 34 39 45 51 55 59 59 58 60 59 57 57 59 55 62 65 59 52 55 45 47 51 60 67 70 59 66 65 64 63 64
32 35 37 36 35 32 31 30 29 29 30 34 41 47 52 56 60 61 60 57 59 58 55 53 53 54 65 57 60 64 53 53 58 44 56 68 59 54 54 51 60 60 56
35 38 39 38 35 33 33 32 33 34 36 40 46 52 57 59 62 62 58 57 58 56 52 52 46 58 54 49 60 60 62 67 53 55 63 60 52 49 47 53 53 58 64
38 39 39 38 35 34 35 37 39 39 43 46 50 56 60 62 61 60 56 55 58 56 51 46 52 45 46 43 55 62 67 54 65 73 54 51 52 51 48 47 48 49 53
41 41 41 40 38 39 41 41 42 44 47 49 53 56 59 61 61 55 53 48 50 50 53 53 53 42 38 46 49 55 51 55 64 64 62 58 54 52 53 51 48 47 50
43 43 42 42 41 42 43 43 45 47 50 53 56 57 59 59 55 54 51 40 40 46 51 55 47 44 47 56 63 53 46 60 62 63 63 61 60 57 55 54 52 48 46
44 42 43 42 41 42 44 45 48 50 52 54 56 60 62 59 53 50 45 42 39 45 52 48 53 56 62 67 61 57 58 58 58 58 60 60 59 60 59 57 53 52 49
46 44 43 42 42 43 45 47 49 50 52 52 57 61 63 59 53 50 48 48 49 51 60 59 60 65 65 64 59 54 53 54 55 57 58 58 58 57 56 54 56 55 56
49 47 46 45 45 44 45 46 48 49 51 53 57 60 62 60 54 46 42 46 45 50 56 61 63 61 59 58 54 52 51 51 52 52 54 56 56 57 55 53 52 53 53
55 52 49 48 47 45 46 47 49 49 49 52 55 57 56 55 53 44 41 39 49 55 58 64 62 59 58 59 59 56 50 50 50 52 52 54 56 57 57 54 53 53 55
58 54 52 52 49 48 49 51 54 47 48 50 53 55 54 56 56 53 42 37 52 54 53 56 57 57 57 57 58 57 57 52 52 52 54 53 55 56 58 56 55 55 56
56 56 56 53 51 51 51 52 53 52 53 50 47 52 54 54 54 53 54 59 55 47 51 55 57 58 58 58 57 58 58 57 55 54 54 53 52 56 58 57 55 57 58
57 57 55 54 54 52 51 52 52 51 54 56 53 46 50 50 51 50 52 55 57 57 55 55 54 56 58 60 58 58 59 58 56 56 55 55 53 53 54 55 55 54 56
60 55 53 54 53 51 50 52 50 50 53 54 51 53 49 53 52 47 47 51 54 58 61 63 62 61 62 63 64 63 64 62 60 59 58 58 56 55 55 57 56 58 57
57 53 52 52 51 49 50 48 46 49 52 51 48 48 52 56 56 56 56 55 58 61 63 65 65 63 64 65 65 65 65 65 62 62 62 62 61 60 56 56 56 55 56
52 50 50 49 47 47 46 45 45 49 50 50 46 45 49 52 55 57 58 59 60 61 63 67 68 64 62 64 65 64 65 65 61 61 62 62 62 61 59 57 56 55 54
49 48 46 45 44 44 43 42 45 49 48 47 48 48 47 50 53 56 59 61 62 63 61 62 64 62 58 56 55 57 59 58 58 58 60 60 59 58 56 56 54 54 53
46 42 41 41 40 39 38 40 46 47 47 46 47 49 52 54 55 57 60 63 64 60 56 56 57 58 58 56 53 50 49 48 49 51 54 57 57 54 54 53 52 51 50
38 38 37 35 35 35 37 41 43 43 44 45 46 49 51 54 58 61 62 61 58 57 56 56 55 55 54 51 47 46 46 47 50 51 51 52 52 49 49 50 46 45 47
36 33 32 33 32 34 38 40 39 39 41 43 46 49 54 57 60 60 56 55 57 57 58 57 55 52 50 48 47 48 49 49 50 47 49 51 53 51 53 52 48 53 55
Wind_Direction_850mb
348 346 342 336 332 328 326 325 324 327 328 327 331 337 342 345 347 347 347 349 349 349 345 344 342 339 340 337 336 337 333 330 316 314 321 324 321 326 330 329 331 332 330
335 332 327 327 322 320 320 321 321 322 328 335 339 343 343 344 345 344 344 346 346 345 344 342 341 336 335 336 337 338 331 331 325 318 317 321 325 329 328 328 333 337 338
323 321 321 320 319 319 318 317 322 326 334 339 341 341 343 342 340 339 340 343 343 341 341 340 337 334 331 330 330 331 332 324 325 322 315 321 326 334 326 329 335 338 344
315 315 316 317 314 315 315 315 318 324 334 339 343 343 343 342 340 339 337 335 335 333 332 332 331 330 330 330 330 331 328 326 324 329 321 321 327 329 329 331 332 337 341
309 314 314 312 313 313 311 308 310 320 330 337 340 340 340 337 335 333 330 330 330 329 330 331 331 331 333 334 331 330 327 323 322 327 324 315 325 328 332 328 329 331 335
305 310 310 312 313 309 299 294 302 316 321 326 332 333 332 333 332 331 329 327 326 327 327 328 329 329 329 332 330 327 321 318 321 325 316 316 318 319 324 325 324 334 336
305 308 310 309 304 298 290 286 291 296 306 316 321 326 329 332 332 330 327 323 322 324 324 325 327 326 328 332 332 324 322 321 319 318 309 321 321 324 316 320 323 329 330
299 304 305 306 301 290 281 275 278 287 300 316 324 326 328 329 328 325 322 318 319 322 322 322 324 321 325 337 323 325 330 318 327 313 312 322 319 318 314 316 322 322 327
301 304 304 299 291 279 271 273 282 293 304 311 317 321 324 325 324 323 321 318 318 319 319 318 317 319 324 327 323 325 318 321 322 315 315 315 316 317 317 318 324 327 330
297 301 299 296 289 284 282 282 289 296 302 309 315 320 321 321 321 321 319 318 318 319 320 317 315 317 320 323 323 319 315 327 317 314 317 315 317 319 320 322 326 326 327
301 302 300 296 293 289 284 283 288 293 299 307 312 313 315 319 319 318 318 320 320 323 317 317 317 323 316 314 321 313 322 312 307 314 317 318 317 317 318 320 324 324 321
299 297 298 297 292 287 284 283 289 296 301 306 307 310 313 315 318 319 322 320 319 313 315 318 319 314 309 315 319 319 316 308 312 313 314 316 318 319 319 320 321 319 316
295 297 295 292 290 286 284 286 292 297 301 302 306 311 314 317 320 320 320 321 318 315 318 315 307 308 308 314 318 316 314 311 311 313 314 317 318 318 318 317 316 316 313
292 292 291 291 288 286 285 288 292 297 299 303 308 311 313 316 319 319 320 326 321 319 315 311 308 307 309 311 313 313 313 313 314 314 314 314 314 316 319 322 323 323 320
290 290 289 287 284 282 282 285 292 295 297 303 309 311 312 315 317 318 317 315 320 306 299 303 310 315 316 317 316 315 314 314 315 315 316 317 318 319 321 323 324 323 322
289 287 286 282 281 280 282 287 292 295 298 304 308 307 307 310 312 313 314 319 298 298 308 313 317 319 320 320 321 321 322 320 320 319 319 318 319 319 320 323 323 322 321
290 287 282 281 281 279 281 286 293 293 297 303 305 304 306 309 312 314 315 306 302 309 312 314 315 317 319 319 318 319 319 320 318 317 316 316 316 316 317 320 322 321 320
289 285 281 280 279 278 282 288 292 294 298 302 303 303 304 307 310 312 309 309 312 310 311 314 316 317 317 317 316 316 316 317 317 316 315 314 315 314 315 316 317 318 319
288 284 280 278 277 277 281 288 290 293 299 304 306 304 303 306 308 310 310 310 314 316 316 314 313 314 314 314 314 313 313 315 315 315 315 313 314 313 313 315 316 316 316
288 284 279 278 277 277 281 284 287 293 299 304 306 306 308 307 309 310 313 314 313 313 313 312 312 312 311 310 311 311 310 311 311 311 310 309 310 311 312 312 315 317 318
286 281 279 277 277 277 279 283 287 294 298 301 304 305 309 310 314 315 316 315 313 312 312 310 311 312 311 311 310 309 309 309 310 308 306 306 307 307 309 310 312 314 316
284 282 278 277 276 276 280 281 289 294 298 302 304 305 306 309 311 313 313 313 312 312 312 312 313 314 314 313 312 312 312 312 311 308 306 305 305 306 308 308 309 313 315
284 282 279 276 275 276 278 284 291 295 300 302 304 307 307 308 310 312 312 312 312 312 313 312 312 314 315 314 314 314 312 313 311 309 309 308 308 308 308 308 309 311 314
285 281 277 276 274 277 281 287 293 298 300 302 304 308 310 311 312 313 313 312 312 314 316 315 315 316 316 317 317 314 313 315 314 314 313 312 312 313 311 310 311 312 313
283 281 277 273 273 275 282 289 293 295 298 302 305 308 309 311 314 314 313 313 315 317 319 318 318 318 318 320 321 319 317 314 311 310 311 310 311 312 315 315 316 317 318
279 274 270 269 271 278 285 289 291 295 298 301 305 309 312 314 315 314 315 316 317 319 320 320 320 319 320 323 322 319 316 313 312 312 314 316 319 322 324 322 320 319 319